sat.trackr.live / text

‹ back to catalog

OMNI-L2

NORAD 52771 · 2022-057AR

PAYLOAD ACTIVE UNKNOWN

§ Identity

Operator
Country
US
Launch date
2022-05-25
Launch site
AFETR
Launch vehicle
Mass (kg)
RCS (m²)

External: N2YO · Heavens-Above · Gunter

§ Orbital elements

Epoch: 2026-05-25T03:44:52.596384Z

Period
97.21 min
Inclination
97.4725°
Eccentricity
0.0007778
Mean motion
14.81296868 rev/d
Perigee alt
619.8 km
Apogee alt
630.7 km
Semi-major
7,003.4 km
B*
1.4876e-4
RAAN
209.0620°
Arg perigee
50.5755°
Mean anomaly
309.6146°
Rev number
21,698

§ Raw data

OMNI-L21 52771U 22057AR  26145.15616431  .00001113  00000+0  14876-3 0  99972 52771  97.4725 209.0620 0007778  50.5755 309.6146 14.81296868216981

JSON: /api/v1/satellites/52771 · /tle

For live sub-satellite position, see the globe view (requires WebGL).

§ Visibility from observer

Set your observer location to see the next 7 days of passes ≥ 10°. The values pass through the URL so the page stays shareable.

No JS? Fill the form by hand. The geolocation button needs JavaScript.

§ Radio — SatNOGS DB

ModeDescriptionDownlinkUplink
FM UHF Unknown 401.050 MHz

1 transmitter · refreshed weekly from db.satnogs.org